Location: Balsareny
(41.8670°N, 1.8830°E)
Time: 00:02:11
(UTC+01:00)

X-37B - Pass Details

Date: 05 December 2021
Orbit: 334 x 337 km, 45.0° (Epoch: 11 January)

Event Time Altitude Azimuth Distance (km) Brightness Sun altitude
Rises 19:06:18 0° 219° (SW) 2,090 5.2 -18.9°
Reaches altitude 10° 19:08:29 10° 205° (SSW) 1,258 3.7 -19.3°
Enters shadow 19:09:56 20° 179° (S) 841 2.4 -19.6°
